Time,TemperatureF,DewpointF,PressureIn,WindDirection,WindDirectionDegrees,WindSpeedMPH,WindSpeedGustMPH,Humidity,HourlyPrecipIn,Conditions,Clouds,dailyrainin,SoftwareType,DateUTC
2013-11-16 00:11:00,49.6,49.1,30.05,East,90,0.0,-999.0,98,-99.99,,,0.01,Acu-Link.com,2013-11-16 05:11:00,
2013-11-16 00:26:00,49.3,48.8,30.04,North,0,0.0,-999.0,98,-99.99,,,0.02,Acu-Link.com,2013-11-16 05:26:00,
2013-11-16 00:41:00,49.1,48.6,30.04,WSW,247,0.0,-999.0,98,-99.99,,,0.02,Acu-Link.com,2013-11-16 05:41:00,
2013-11-16 00:57:00,48.9,48.4,30.04,South,180,0.0,-999.0,98,-99.99,,,0.02,Acu-Link.com,2013-11-16 05:57:00,
2013-11-16 01:12:00,48.9,48.4,30.04,WSW,247,0.0,-999.0,98,-99.99,,,0.02,Acu-Link.com,2013-11-16 06:12:00,
2013-11-16 01:27:00,48.9,48.4,30.03,NNE,22,0.0,-999.0,98,-99.99,,,0.02,Acu-Link.com,2013-11-16 06:27:00,
2013-11-16 01:42:00,48.7,48.2,30.03,East,90,0.0,-999.0,98,-99.99,,,0.03,Acu-Link.com,2013-11-16 06:42:00,
2013-11-16 01:57:00,48.6,48.1,30.04,East,90,0.0,-999.0,98,-99.99,,,0.04,Acu-Link.com,2013-11-16 06:57:00,
2013-11-16 02:12:00,48.6,48.1,30.04,SW,225,0.0,-999.0,98,-99.99,,,0.04,Acu-Link.com,2013-11-16 07:12:00,
2013-11-16 02:27:00,48.6,48.1,30.03,WNW,292,0.0,-999.0,98,-99.99,,,0.04,Acu-Link.com,2013-11-16 07:27:00,
2013-11-16 02:42:00,48.6,48.1,30.04,West,270,0.0,-999.0,98,-99.99,,,0.04,Acu-Link.com,2013-11-16 07:42:00,
2013-11-16 02:57:00,48.6,48.1,30.04,WSW,247,0.0,-999.0,98,-99.99,,,0.04,Acu-Link.com,2013-11-16 07:57:00,
2013-11-16 03:13:00,48.6,48.1,30.04,WNW,292,0.0,-999.0,98,-99.99,,,0.04,Acu-Link.com,2013-11-16 08:13:00,
2013-11-16 03:28:00,48.2,47.7,30.03,ENE,67,0.0,-999.0,98,-99.99,,,0.04,Acu-Link.com,2013-11-16 08:28:00,
2013-11-16 03:43:00,47.8,47.3,30.02,ENE,67,0.0,-999.0,98,-99.99,,,0.04,Acu-Link.com,2013-11-16 08:43:00,
2013-11-16 03:58:00,47.7,47.2,30.03,NE,45,0.0,-999.0,98,-99.99,,,0.04,Acu-Link.com,2013-11-16 08:58:00,
2013-11-16 04:13:00,47.5,47.0,30.03,SE,135,1.7,-999.0,98,-99.99,,,0.04,Acu-Link.com,2013-11-16 09:13:00,
2013-11-16 04:28:00,47.3,46.8,30.02,ENE,67,0.0,-999.0,98,-99.99,,,0.04,Acu-Link.com,2013-11-16 09:28:00,
2013-11-16 04:43:00,47.1,46.6,30.02,WNW,292,0.0,-999.0,98,-99.99,,,0.04,Acu-Link.com,2013-11-16 09:43:00,
2013-11-16 04:58:00,46.6,46.1,30.00,ENE,67,0.0,-999.0,98,-99.99,,,0.04,Acu-Link.com,2013-11-16 09:58:00,
2013-11-16 05:13:00,46.2,45.7,30.01,WNW,292,0.0,-999.0,98,-99.99,,,0.04,Acu-Link.com,2013-11-16 10:13:00,
2013-11-16 05:29:00,45.5,45.0,30.01,ENE,67,0.0,-999.0,98,-99.99,,,0.04,Acu-Link.com,2013-11-16 10:29:00,
2013-11-16 05:44:00,45.0,44.5,30.02,ENE,67,0.0,-999.0,98,-99.99,,,0.04,Acu-Link.com,2013-11-16 10:44:00,
2013-11-16 05:59:00,45.0,44.5,30.03,WNW,292,0.0,-999.0,98,-99.99,,,0.04,Acu-Link.com,2013-11-16 10:59:00,
2013-11-16 06:14:00,44.8,44.3,30.04,ENE,67,0.0,-999.0,98,-99.99,,,0.04,Acu-Link.com,2013-11-16 11:14:00,
2013-11-16 06:29:00,45.7,45.2,30.05,WNW,292,0.0,-999.0,98,-99.99,,,0.04,Acu-Link.com,2013-11-16 11:29:00,
2013-11-16 06:44:00,46.0,45.5,30.06,East,90,0.0,-999.0,98,-99.99,,,0.04,Acu-Link.com,2013-11-16 11:44:00,
2013-11-16 06:59:00,46.8,46.3,30.06,West,270,0.0,-999.0,98,-99.99,,,0.04,Acu-Link.com,2013-11-16 11:59:00,
2013-11-16 07:14:00,47.3,46.8,30.06,West,270,0.0,-999.0,98,-99.99,,,0.04,Acu-Link.com,2013-11-16 12:14:00,
2013-11-16 07:29:00,47.7,47.2,30.06,SSW,202,0.0,-999.0,98,-99.99,,,0.04,Acu-Link.com,2013-11-16 12:29:00,
2013-11-16 07:44:00,47.8,47.3,30.07,South,180,0.0,-999.0,98,-99.99,,,0.04,Acu-Link.com,2013-11-16 12:44:00,
2013-11-16 08:00:00,48.0,47.5,30.08,WNW,292,0.0,-999.0,98,-99.99,,,0.04,Acu-Link.com,2013-11-16 13:00:00,
2013-11-16 08:15:00,48.4,47.9,30.09,West,270,0.0,-999.0,98,-99.99,,,0.04,Acu-Link.com,2013-11-16 13:15:00,
2013-11-16 08:30:00,48.7,48.2,30.08,ENE,67,0.0,-999.0,98,-99.99,,,0.04,Acu-Link.com,2013-11-16 13:30:00,
2013-11-16 08:45:00,49.6,49.1,30.08,WSW,247,0.0,-999.0,98,-99.99,,,0.04,Acu-Link.com,2013-11-16 13:45:00,
2013-11-16 09:00:00,50.0,49.5,30.09,WNW,292,0.0,-999.0,98,-99.99,,,0.04,Acu-Link.com,2013-11-16 14:00:00,
2013-11-16 09:15:00,51.3,50.8,30.08,SW,225,0.0,-999.0,98,-99.99,,,0.04,Acu-Link.com,2013-11-16 14:15:00,
2013-11-16 09:30:00,51.4,50.9,30.08,ESE,112,0.0,-999.0,98,-99.99,,,0.04,Acu-Link.com,2013-11-16 14:30:00,
2013-11-16 09:45:00,52.2,51.7,30.08,SSE,157,0.0,-999.0,98,-99.99,,,0.04,Acu-Link.com,2013-11-16 14:45:00,
2013-11-16 10:00:00,52.9,52.4,30.08,East,90,1.1,-999.0,98,-99.99,,,0.04,Acu-Link.com,2013-11-16 15:00:00,
2013-11-16 10:16:00,52.9,52.4,30.09,South,180,2.2,-999.0,98,-99.99,,,0.04,Acu-Link.com,2013-11-16 15:16:00,
2013-11-16 10:31:00,53.4,52.8,30.09,East,90,0.0,-999.0,98,-99.99,,,0.04,Acu-Link.com,2013-11-16 15:31:00,
2013-11-16 10:46:00,53.4,52.8,30.10,ENE,67,0.0,-999.0,98,-99.99,,,0.04,Acu-Link.com,2013-11-16 15:46:00,
2013-11-16 11:01:00,54.1,53.5,30.10,NNE,22,0.0,-999.0,98,-99.99,,,0.04,Acu-Link.com,2013-11-16 16:01:00,
2013-11-16 11:16:00,53.6,53.0,30.09,SSW,202,0.0,-999.0,98,-99.99,,,0.04,Acu-Link.com,2013-11-16 16:16:00,
2013-11-16 11:31:00,53.6,53.0,30.09,South,180,0.0,-999.0,98,-99.99,,,0.04,Acu-Link.com,2013-11-16 16:31:00,
2013-11-16 11:46:00,53.8,53.2,30.08,SE,135,1.7,-999.0,98,-99.99,,,0.04,Acu-Link.com,2013-11-16 16:46:00,
2013-11-16 12:01:00,54.7,54.1,30.08,SSE,157,0.0,-999.0,98,-99.99,,,0.04,Acu-Link.com,2013-11-16 17:01:00,
2013-11-16 12:32:00,55.4,54.8,30.07,West,270,0.0,-999.0,98,-99.99,,,0.04,Acu-Link.com,2013-11-16 17:32:00,
2013-11-16 12:47:00,56.7,56.1,30.06,SSW,202,0.0,-999.0,98,-99.99,,,0.04,Acu-Link.com,2013-11-16 17:47:00,
2013-11-16 13:02:00,57.0,56.4,30.06,SSE,157,0.0,-999.0,98,-99.99,,,0.04,Acu-Link.com,2013-11-16 18:02:00,
2013-11-16 13:17:00,58.6,58.0,30.06,NNE,22,0.0,-999.0,98,-99.99,,,0.04,Acu-Link.com,2013-11-16 18:17:00,
2013-11-16 13:32:00,57.0,56.4,30.05,WNW,292,0.0,-999.0,98,-99.99,,,0.04,Acu-Link.com,2013-11-16 18:32:00,
2013-11-16 13:47:00,58.5,57.9,30.05,SSW,202,1.1,-999.0,98,-99.99,,,0.04,Acu-Link.com,2013-11-16 18:47:00,
2013-11-16 14:02:00,57.4,56.8,30.05,East,90,2.2,-999.0,98,-99.99,,,0.04,Acu-Link.com,2013-11-16 19:02:00,
2013-11-16 14:17:00,56.5,55.9,30.04,East,90,0.0,-999.0,98,-99.99,,,0.04,Acu-Link.com,2013-11-16 19:17:00,
2013-11-16 14:32:00,55.8,55.2,30.03,SSE,157,0.0,-999.0,98,-99.99,,,0.04,Acu-Link.com,2013-11-16 19:32:00,
2013-11-16 14:48:00,55.4,54.8,30.00,West,270,0.0,-999.0,98,-99.99,,,0.04,Acu-Link.com,2013-11-16 19:48:00,
2013-11-16 15:03:00,55.8,55.2,30.01,East,90,0.0,-999.0,98,-99.99,,,0.04,Acu-Link.com,2013-11-16 20:03:00,
2013-11-16 15:18:00,54.9,54.3,30.01,East,90,0.0,-999.0,98,-99.99,,,0.04,Acu-Link.com,2013-11-16 20:18:00,
2013-11-16 15:33:00,54.9,54.3,30.02,SSW,202,0.0,-999.0,98,-99.99,,,0.04,Acu-Link.com,2013-11-16 20:33:00,
2013-11-16 15:49:00,54.9,54.3,30.02,ENE,67,0.0,-999.0,98,-99.99,,,0.04,Acu-Link.com,2013-11-16 20:49:00,
2013-11-16 16:04:00,54.9,54.3,30.02,NNE,22,1.1,-999.0,98,-99.99,,,0.04,Acu-Link.com,2013-11-16 21:04:00,
2013-11-16 16:19:00,54.9,54.3,30.02,East,90,0.0,-999.0,98,-99.99,,,0.04,Acu-Link.com,2013-11-16 21:19:00,
2013-11-16 16:34:00,54.7,54.1,30.03,East,90,0.0,-999.0,98,-99.99,,,0.04,Acu-Link.com,2013-11-16 21:34:00,
2013-11-16 16:49:00,54.1,53.5,30.03,ENE,67,0.0,-999.0,98,-99.99,,,0.04,Acu-Link.com,2013-11-16 21:49:00,
2013-11-16 17:04:00,54.0,53.4,30.03,ESE,112,0.0,-999.0,98,-99.99,,,0.04,Acu-Link.com,2013-11-16 22:04:00,
2013-11-16 17:20:00,53.8,53.2,30.03,ENE,67,0.0,-999.0,98,-99.99,,,0.04,Acu-Link.com,2013-11-16 22:20:00,
2013-11-16 17:35:00,53.4,52.8,30.03,East,90,0.0,-999.0,98,-99.99,,,0.04,Acu-Link.com,2013-11-16 22:35:00,
2013-11-16 17:50:00,53.4,52.8,30.03,NE,45,0.0,-999.0,98,-99.99,,,0.04,Acu-Link.com,2013-11-16 22:50:00,
2013-11-16 18:05:00,53.4,52.8,30.03,West,270,0.0,-999.0,98,-99.99,,,0.04,Acu-Link.com,2013-11-16 23:05:00,
2013-11-16 18:20:00,53.4,52.8,30.03,ENE,67,0.0,-999.0,98,-99.99,,,0.04,Acu-Link.com,2013-11-16 23:20:00,
2013-11-16 18:35:00,53.4,52.8,30.03,SSW,202,0.0,-999.0,98,-99.99,,,0.04,Acu-Link.com,2013-11-16 23:35:00,
2013-11-16 18:50:00,53.4,52.8,30.03,ENE,67,0.0,-999.0,98,-99.99,,,0.04,Acu-Link.com,2013-11-16 23:50:00,
2013-11-16 19:20:00,53.4,52.8,30.04,NNW,337,0.0,-999.0,98,-99.99,,,0.04,Acu-Link.com,2013-11-17 00:20:00,
2013-11-16 19:36:00,53.4,52.8,30.05,ENE,67,0.0,-999.0,98,-99.99,,,0.04,Acu-Link.com,2013-11-17 00:36:00,
2013-11-16 19:51:00,53.4,52.8,30.05,SSE,157,2.7,-999.0,98,-99.99,,,0.04,Acu-Link.com,2013-11-17 00:51:00,
2013-11-16 20:06:00,53.2,52.6,30.05,East,90,0.0,-999.0,98,-99.99,,,0.04,Acu-Link.com,2013-11-17 01:06:00,
2013-11-16 20:21:00,53.2,52.6,30.05,South,180,0.0,-999.0,98,-99.99,,,0.04,Acu-Link.com,2013-11-17 01:21:00,
2013-11-16 20:36:00,53.2,52.6,30.05,West,270,0.0,-999.0,98,-99.99,,,0.04,Acu-Link.com,2013-11-17 01:36:00,
2013-11-16 20:51:00,53.2,52.6,30.05,SSE,157,0.0,-999.0,98,-99.99,,,0.04,Acu-Link.com,2013-11-17 01:51:00,
2013-11-16 21:06:00,53.2,52.6,30.05,ESE,112,1.1,-999.0,98,-99.99,,,0.04,Acu-Link.com,2013-11-17 02:06:00,
2013-11-16 21:21:00,53.2,52.6,30.03,East,90,1.7,-999.0,98,-99.99,,,0.04,Acu-Link.com,2013-11-17 02:21:00,
2013-11-16 21:36:00,53.2,52.6,30.03,East,90,3.7,-999.0,98,-99.99,,,0.04,Acu-Link.com,2013-11-17 02:36:00,
2013-11-16 22:07:00,53.2,52.6,30.04,NE,45,0.0,-999.0,98,-99.99,,,0.04,Acu-Link.com,2013-11-17 03:07:00,
2013-11-16 22:22:00,53.2,52.6,30.04,NNW,337,0.0,-999.0,98,-99.99,,,0.04,Acu-Link.com,2013-11-17 03:22:00,
2013-11-16 22:37:00,53.2,52.6,30.03,East,90,1.1,-999.0,98,-99.99,,,0.04,Acu-Link.com,2013-11-17 03:37:00,
2013-11-16 22:52:00,53.2,52.6,30.04,NE,45,0.0,-999.0,98,-99.99,,,0.04,Acu-Link.com,2013-11-17 03:52:00,
2013-11-16 23:07:00,53.2,52.6,30.04,ENE,67,1.1,-999.0,98,-99.99,,,0.04,Acu-Link.com,2013-11-17 04:07:00,
2013-11-16 23:22:00,53.2,52.6,30.04,South,180,1.7,-999.0,98,-99.99,,,0.04,Acu-Link.com,2013-11-17 04:22:00,
2013-11-16 23:37:00,53.4,52.8,30.03,ESE,112,0.0,-999.0,98,-99.99,,,0.04,Acu-Link.com,2013-11-17 04:37:00,
2013-11-16 23:52:00,53.4,52.8,30.04,ESE,112,1.1,-999.0,98,-99.99,,,0.04,Acu-Link.com,2013-11-17 04:52:00,